TimeEST,TemperatureF,Dew PointF,Humidity,Sea Level PressureIn,VisibilityMPH,Wind Direction,Wind SpeedMPH,Gust SpeedMPH,PrecipitationIn,Events,Conditions,WindDirDegrees,DateUTC
12:40 AM,17.6,10.4,73,29.72,8.0,WSW,9.2,18.4,N/A,,Overcast,250,2013-02-01 05:40:00
12:51 AM,17.6,8.6,68,29.71,10.0,West,13.8,21.9,N/A,,Overcast,270,2013-02-01 05:51:00
12:56 AM,17.1,9.0,71,29.79,10.0,West,11.5,-,N/A,,Overcast,260,2013-02-01 05:56:00
1:54 AM,15.8,8.6,73,29.70,10.0,West,6.9,-,N/A,,Overcast,260,2013-02-01 06:54:00
1:56 AM,16.0,9.0,74,29.79,10.0,West,6.9,-,N/A,,Overcast,260,2013-02-01 06:56:00
2:56 AM,15.1,6.1,68,29.81,10.0,West,13.8,-,N/A,,Overcast,270,2013-02-01 07:56:00
3:56 AM,14.0,5.0,67,29.82,10.0,West,10.4,-,N/A,,Overcast,260,2013-02-01 08:56:00
5:12 AM,12.2,6.8,79,29.77,6.0,West,15.0,-,N/A,,Haze,270,2013-02-01 10:12:00
5:24 AM,12.2,6.8,79,29.78,1.8,West,16.1,25.3,0.00,Snow,Light Snow,260,2013-02-01 10:24:00
5:56 AM,12.9,7.0,77,29.90,0.8,WSW,18.4,25.3,0.00,Snow,Light Snow,250,2013-02-01 10:56:00
6:05 AM,12.2,6.8,79,29.81,1.5,WSW,13.8,24.2,0.00,Snow,Light Snow,250,2013-02-01 11:05:00
6:15 AM,12.2,6.8,79,29.82,2.0,WSW,13.8,-,0.00,Snow,Light Snow,250,2013-02-01 11:15:00
6:24 AM,12.2,8.6,85,29.83,1.2,West,16.1,-,0.00,Snow,Light Snow,260,2013-02-01 11:24:00
6:43 AM,12.2,6.8,79,29.84,3.0,WSW,13.8,-,0.00,Snow,Light Snow,250,2013-02-01 11:43:00
6:56 AM,12.0,7.0,80,29.94,5.0,West,17.3,24.2,0.00,,Haze,260,2013-02-01 11:56:00
7:08 AM,12.2,6.8,79,29.85,1.8,WSW,18.4,-,0.00,Snow,Light Snow,250,2013-02-01 12:08:00
7:24 AM,12.2,6.8,79,29.86,2.0,WSW,16.1,26.5,0.00,Snow,Light Snow,250,2013-02-01 12:24:00
7:33 AM,12.2,6.8,79,29.87,1.0,West,17.3,-,0.00,Snow,Light Snow,260,2013-02-01 12:33:00
7:56 AM,12.0,6.1,77,29.98,4.0,WSW,20.7,27.6,0.00,,Haze,250,2013-02-01 12:56:00
8:24 AM,12.2,6.8,79,29.90,1.8,West,18.4,28.8,0.00,Snow,Light Snow,260,2013-02-01 13:24:00
8:45 AM,12.2,6.8,79,29.91,2.5,West,20.7,27.6,0.00,,Haze,260,2013-02-01 13:45:00
8:52 AM,12.2,6.8,79,29.91,1.8,WSW,21.9,28.8,0.00,,Haze,250,2013-02-01 13:52:00
8:53 AM,12.2,6.8,79,29.91,2.0,West,19.6,28.8,0.00,,Haze,260,2013-02-01 13:53:00
8:56 AM,12.0,6.1,77,30.01,1.8,West,23.0,28.8,0.00,,Haze,260,2013-02-01 13:56:00
9:05 AM,12.2,6.8,79,29.92,1.2,WSW,19.6,26.5,N/A,,Haze,250,2013-02-01 14:05:00
9:52 AM,12.2,6.8,79,29.94,3.0,West,16.1,26.5,0.00,,Haze,270,2013-02-01 14:52:00
9:56 AM,12.0,5.0,73,30.04,4.0,West,19.6,26.5,0.00,,Haze,260,2013-02-01 14:56:00
10:27 AM,12.2,5.0,73,29.96,1.8,West,23.0,33.4,N/A,,Haze,260,2013-02-01 15:27:00
10:38 AM,12.2,6.8,79,29.97,3.0,West,16.1,26.5,N/A,,Haze,270,2013-02-01 15:38:00
10:52 AM,14.0,6.8,73,29.97,2.5,West,18.4,34.5,N/A,,Haze,260,2013-02-01 15:52:00
11:10 AM,14.0,6.8,73,29.98,1.2,WSW,23.0,33.4,N/A,,Haze,250,2013-02-01 16:10:00
11:56 AM,14.0,7.0,74,30.08,1.0,West,19.6,33.4,N/A,,Haze,260,2013-02-01 16:56:00
12:07 PM,15.8,6.8,68,29.99,3.0,West,18.4,31.1,N/A,,Haze,280,2013-02-01 17:07:00
12:20 PM,14.0,6.8,73,29.99,1.8,West,21.9,33.4,0.00,Snow,Light Snow,270,2013-02-01 17:20:00
12:56 PM,14.0,6.1,71,30.10,1.5,West,21.9,28.8,0.00,,Haze,260,2013-02-01 17:56:00
1:12 PM,14.0,6.8,73,30.00,2.0,West,15.0,23.0,N/A,,Haze,260,2013-02-01 18:12:00
1:23 PM,14.0,6.8,73,30.01,1.2,West,19.6,26.5,N/A,,Haze,270,2013-02-01 18:23:00
1:41 PM,14.0,6.8,73,30.01,0.8,West,16.1,26.5,0.00,Snow,Light Snow,260,2013-02-01 18:41:00
1:52 PM,14.0,6.8,73,30.01,1.0,West,15.0,21.9,0.00,,Haze,270,2013-02-01 18:52:00
1:56 PM,14.0,8.1,77,30.11,0.8,WSW,18.4,27.6,0.00,Snow,Light Snow,250,2013-02-01 18:56:00
2:15 PM,14.0,6.8,73,30.02,1.2,WSW,18.4,23.0,0.00,,Haze,250,2013-02-01 19:15:00
2:36 PM,14.0,8.6,79,30.03,0.5,West,13.8,27.6,0.00,Snow,Snow,260,2013-02-01 19:36:00
2:56 PM,14.0,10.0,84,30.14,0.5,West,15.0,28.8,0.00,Fog-Snow,Light Snow,260,2013-02-01 19:56:00
3:00 PM,14.0,10.4,86,30.04,0.2,West,16.1,-,0.00,Fog-Snow,Snow,260,2013-02-01 20:00:00
3:06 PM,14.0,8.6,79,30.04,0.5,West,19.6,27.6,0.00,Snow,Snow,270,2013-02-01 20:06:00
3:19 PM,14.0,6.8,73,30.05,1.8,West,18.4,24.2,0.00,,Haze,260,2013-02-01 20:19:00
3:30 PM,14.0,6.8,73,30.05,2.0,West,18.4,26.5,0.00,,Haze,270,2013-02-01 20:30:00
3:35 PM,14.0,8.6,79,30.06,0.8,West,15.0,21.9,0.00,Snow,Light Snow,260,2013-02-01 20:35:00
3:49 PM,14.0,10.4,86,30.06,0.2,West,16.1,21.9,0.00,Fog-Snow,Light Snow,270,2013-02-01 20:49:00
3:56 PM,14.0,9.0,80,30.17,0.8,West,16.1,25.3,0.00,Snow,Light Snow,270,2013-02-01 20:56:00
4:30 PM,12.2,6.8,79,30.07,2.5,West,12.7,21.9,0.00,,Haze,260,2013-02-01 21:30:00
4:41 PM,12.2,8.6,85,30.07,0.8,West,13.8,25.3,0.00,Snow,Light Snow,260,2013-02-01 21:41:00
4:54 PM,12.2,6.8,79,30.08,2.0,WSW,21.9,28.8,0.00,Snow,Light Snow,250,2013-02-01 21:54:00
4:56 PM,12.9,6.1,74,30.18,2.0,WSW,19.6,28.8,0.00,,Haze,250,2013-02-01 21:56:00
5:05 PM,12.2,5.0,73,30.08,1.5,West,15.0,31.1,N/A,,Haze,270,2013-02-01 22:05:00
5:10 PM,12.2,5.0,73,30.09,3.0,West,16.1,24.2,N/A,,Haze,270,2013-02-01 22:10:00
5:23 PM,12.2,3.2,67,30.09,1.8,WSW,26.5,33.4,N/A,,Haze,250,2013-02-01 22:23:00
5:41 PM,12.2,3.2,67,30.10,4.0,West,18.4,24.2,N/A,,Haze,260,2013-02-01 22:41:00
5:56 PM,12.0,3.0,67,30.21,8.0,West,13.8,24.2,N/A,,Mostly Cloudy,260,2013-02-01 22:56:00
6:26 PM,10.4,1.4,67,30.12,10.0,West,17.3,-,N/A,,Scattered Clouds,260,2013-02-01 23:26:00
6:56 PM,10.0,1.0,67,30.24,10.0,West,13.8,-,N/A,,Clear,260,2013-02-01 23:56:00
7:56 PM,10.0,3.0,73,30.25,10.0,West,16.1,-,N/A,,Clear,260,2013-02-02 00:56:00
8:56 PM,9.0,1.9,73,30.27,10.0,West,12.7,21.9,N/A,,Clear,260,2013-02-02 01:56:00
9:56 PM,8.1,1.0,73,30.29,10.0,WSW,11.5,-,N/A,,Clear,250,2013-02-02 02:56:00
10:56 PM,7.0,1.9,80,30.29,10.0,WSW,8.1,-,N/A,,Clear,240,2013-02-02 03:56:00
11:56 PM,7.0,1.9,80,30.29,10.0,SW,8.1,-,N/A,,Scattered Clouds,230,2013-02-02 04:56:00